Location: Cypress Hills Dark-Sky Preserve - CHICO
(49.6176°N, 110.2634°W)
Time: 16:56:12
(UTC-06:00)

Amateur Radio Satellites - All Passes

Search period start: 24 April 2017 16:26
Search period end: 25 April 2017 16:26
Location: Cypress Hills Dark-Sky Preserve - CHICO, 49.6176°N, 110.2634°W

Satellite Date Start Highest point End Downlink Frequencies (MHz)
Time Altitude Azimuth
ISS 24 Apr 16:28:31 16:31:10 23° 217° (SW) 16:33:48 437.550
YUBILEINY 24 Apr 16:40:28 16:49:16 86° 263° (W) 16:58:04 435.215
SO-50 24 Apr 16:45:10 16:49:24 41° 239° (WSW) 16:53:38 436.795
DOVE 4 24 Apr 16:55:53 16:59:46 21° 60° (ENE) 17:03:37 437.250
BEESAT 24 Apr 16:59:03 17:03:46 61° 289° (WNW) 17:08:27 436.000
CUTE-I 24 Apr 17:03:58 17:07:27 18° 55° (NE) 17:10:57 437.470
MOZHAYETS 4 24 Apr 17:13:54 17:18:31 79° 287° (WNW) 17:23:08
AO-85 24 Apr 17:22:40 17:24:04 11° 343° (NNW) 17:25:27 145.980
BEESAT 2 24 Apr 17:32:34 17:36:09 31° 322° (NW) 17:39:48 435.950
XW-2D 24 Apr 17:34:29 17:37:19 21° 64° (ENE) 17:40:09 145.860 - 145.880
RS-15 24 Apr 17:34:51 17:47:06 74° 238° (WSW) 17:58:47 29.354- 29.394
ITUPSAT 1 24 Apr 17:38:26 17:42:35 30° 297° (WNW) 17:46:42 437.325
BEESAT 3 24 Apr 17:40:33 17:43:19 18° 332° (NNW) 17:46:06 437.485
XW-2B 24 Apr 17:41:09 17:44:09 23° 65° (ENE) 17:47:09 145.730 - 145.750
KKS-1 24 Apr 17:43:44 17:48:00 42° 99° (E) 17:52:11 437.445
LilacSat-2 24 Apr 17:48:58 17:52:15 29° 67° (ENE) 17:55:33 437.200
HO-68 24 Apr 17:50:43 17:55:47 21° 48° (NE) 18:00:53 435.675
XW-2C 24 Apr 17:52:34 17:55:52 30° 68° (ENE) 17:59:11 145.795 - 145.815
KAITUO 1B 24 Apr 17:56:18 17:59:26 27° 67° (ENE) 18:02:35 145.475/437.950
CUBESAT XI-V 24 Apr 17:58:17 18:02:59 58° 101° (E) 18:07:38 437.345
AO-7 24 Apr 18:03:05 18:08:02 17° 275° (W) 18:13:02 .
XW-2F 24 Apr 18:19:27 18:23:07 57° 72° (ENE) 18:26:47 145.980 - 146.000
STARS 24 Apr 18:22:12 18:26:27 46° 100° (E) 18:30:38 437.465
DOVE 4 24 Apr 18:31:39 18:36:57 73° 258° (WSW) 18:42:12 437.250
NUDT-PHONESAT 24 Apr 18:38:09 18:41:49 77° 75° (ENE) 18:45:30 437.300
YUBILEINY 24 Apr 18:38:42 18:44:47 22° 285° (WNW) 18:50:54 435.215
BEESAT 24 Apr 18:39:25 18:40:36 11° 309° (NW) 18:41:47 436.000
CUTE-I 24 Apr 18:41:27 18:46:50 89° 268° (W) 18:52:13 437.470
MOZHAYETS 4 24 Apr 18:52:55 18:54:55 13° 305° (NW) 18:56:57
XW-2D 24 Apr 19:07:47 19:11:18 38° 263° (W) 19:14:50 145.860 - 145.880
BEESAT 2 24 Apr 19:13:43 19:15:09 12° 344° (NNW) 19:16:37 435.950
XW-2B 24 Apr 19:14:48 19:18:12 33° 263° (W) 19:21:38 145.730 - 145.750
CUTE 1.7 + AOD 2 24 Apr 19:17:13 19:21:07 38° 68° (ENE) 19:25:05 437.475
STRAND 1 24 Apr 19:17:17 19:17:57 10° 84° (E) 19:18:37 437.568
KKS-1 24 Apr 19:20:41 19:24:22 26° 297° (WNW) 19:28:01 437.445
AAUSAT CUBESAT 2 24 Apr 19:22:35 19:25:15 17° 60° (ENE) 19:27:56 437.432
LilacSat-2 24 Apr 19:23:21 19:26:32 26° 265° (W) 19:29:45 437.200
XW-2A 24 Apr 19:24:49 19:28:01 42° 71° (ENE) 19:31:13 145.665 - 145.685
XW-2C 24 Apr 19:26:59 19:30:05 25° 266° (W) 19:33:14 145.795 - 145.815
KAITUO 1B 24 Apr 19:30:14 19:33:25 27° 265° (W) 19:36:38 145.475/437.950
HO-68 24 Apr 19:35:21 19:42:30 78° 69° (ENE) 19:49:41 435.675
CUBESAT XI-V 24 Apr 19:36:25 19:39:59 22° 299° (WNW) 19:43:31 437.345
O/OREOS (USA 219) 24 Apr 19:40:17 19:43:56 22° 47° (NE) 19:47:32 437.305
SEEDS 24 Apr 19:41:34 19:45:33 45° 70° (ENE) 19:49:35 437.485
Oscar 11 24 Apr 19:44:09 19:46:05 13° 57° (ENE) 19:48:02 .
RS-15 24 Apr 19:48:59 19:57:20 22° 263° (W) 20:05:29 29.354- 29.394
UWE-3 24 Apr 19:50:59 19:54:35 27° 66° (ENE) 19:58:08 435.000/436.395/437.385
XW-2F 24 Apr 19:55:42 19:57:37 13° 271° (W) 19:59:33 145.980 - 146.000
CUBEBUG 2 24 Apr 19:58:37 20:02:50 49° 71° (ENE) 20:06:57 437.445
STARS 24 Apr 19:59:05 20:02:32 23° 298° (WNW) 20:05:59 437.465
M-CUBED/EXP-1 PRIME 24 Apr 20:13:19 20:16:37 21° 97° (E) 20:19:43 437.505
DOVE 4 24 Apr 20:13:39 20:15:29 12° 276° (W) 20:17:19 437.250
CUTE-I 24 Apr 20:24:42 20:27:38 15° 273° (W) 20:30:35 437.470
DELFI C3 24 Apr 20:29:16 20:29:58 10° 56° (NE) 20:30:41 145.870
NO-84 24 Apr 20:44:36 20:47:04 18° 135° (SE) 20:49:25 435.350 FM
AO-85 24 Apr 20:44:57 20:48:07 23° 34° (NNE) 20:51:19 145.980
ZACube-1 24 Apr 20:50:55 20:55:04 62° 72° (ENE) 20:59:11 437.345
STRAND 1 24 Apr 20:52:58 20:58:05 70° 103° (ESE) 21:03:10 437.568
CUTE 1.7 + AOD 2 24 Apr 20:53:37 20:57:05 24° 267° (W) 21:00:36 437.475
BEESAT 2 24 Apr 20:54:26 20:54:44 10° 9° (N) 20:55:02 435.950
AAUSAT CUBESAT 2 24 Apr 20:56:10 21:00:17 62° 259° (WSW) 21:04:26 437.432
AO-73 24 Apr 20:59:07 21:03:16 69° 74° (ENE) 21:07:25 145.935
XW-2A 24 Apr 20:59:07 21:01:00 14° 269° (W) 21:02:54 145.665 - 145.685
BEESAT 3 24 Apr 20:59:53 21:01:51 13° 20° (NNE) 21:03:49 437.485
Oscar 11 24 Apr 21:17:16 21:21:33 88° 84° (E) 21:25:55 .
SEEDS 24 Apr 21:18:17 21:21:28 21° 268° (W) 21:24:41 437.485
O/OREOS (USA 219) 24 Apr 21:19:12 21:23:45 62° 247° (WSW) 21:28:15 437.305
HO-68 24 Apr 21:25:19 21:30:58 25° 270° (W) 21:36:40 435.675
UWE-3 24 Apr 21:27:02 21:30:57 35° 263° (W) 21:34:50 435.000/436.395/437.385
CUBEBUG 2 24 Apr 21:36:31 21:39:43 20° 268° (W) 21:42:52 437.445
OBJECT BX 24 Apr 21:40:03 21:43:23 35° 69° (ENE) 21:46:45 145.990 - 145.960
M-CUBED/EXP-1 PRIME 24 Apr 21:47:06 21:51:20 48° 297° (WNW) 21:55:15 437.505
DELFI C3 24 Apr 22:00:03 22:04:02 79° 75° (ENE) 22:08:04 145.870
TIGRISAT 24 Apr 22:19:51 22:21:54 13° 88° (E) 22:23:58 435.000
NO-84 24 Apr 22:20:51 22:24:18 86° 331° (NNW) 22:27:28 435.350 FM
ESTCUBE 1 24 Apr 22:22:36 22:25:11 15° 57° (ENE) 22:27:49 437.505/2401.250
AO-85 24 Apr 22:24:56 22:28:51 65° 234° (SW) 22:32:53 145.980
ZACube-1 24 Apr 22:29:19 22:31:45 15° 271° (W) 22:34:12 437.345
BEESAT 2 24 Apr 22:30:44 22:33:58 22° 32° (NNE) 22:37:10 435.950
STRAND 1 24 Apr 22:33:03 22:36:48 21° 302° (WNW) 22:40:31 437.568
BEESAT 3 24 Apr 22:36:38 22:40:29 40° 42° (NE) 22:44:17 437.485
AO-73 24 Apr 22:37:52 22:39:59 14° 272° (W) 22:42:07 145.935
UNISAT 6 24 Apr 22:39:25 22:42:46 22° 93° (E) 22:46:08 437.425
PRISM 24 Apr 22:45:57 22:49:51 37° 98° (E) 22:53:42 437.425
LO-87 24 Apr 22:51:03 22:54:23 34° 69° (ENE) 22:57:43 145.935 - 145.965
Oscar 11 24 Apr 22:57:03 22:58:21 11° 274° (W) 22:59:39 .
OBJECT BX 24 Apr 23:14:27 23:17:12 20° 267° (W) 23:19:58 145.990 - 145.960
DELFI C3 24 Apr 23:38:05 23:39:22 11° 273° (W) 23:40:39 145.870
50 SAT 24 Apr 23:41:16 23:42:33 12° 59° (ENE) 23:43:50 437.505
DX 1 24 Apr 23:44:37 23:46:39 13° 55° (NE) 23:48:40 434.975-435.025
FO-29 24 Apr 23:49:05 23:54:16 69° 103° (ESE) 23:59:37 435.910
TIGRISAT 24 Apr 23:54:52 23:59:08 74° 286° (WNW) 00:03:24 435.000
ESTCUBE 1 24 Apr 23:56:53 00:01:23 83° 256° (WSW) 00:05:58 437.505/2401.250
NO-84 24 Apr 23:59:09 00:02:06 31° 351° (N) 00:04:52 435.350 FM
SPROUT 25 Apr 00:02:07 00:05:58 34° 67° (ENE) 00:09:50 437.525
BEESAT 2 25 Apr 00:08:06 00:12:10 76° 234° (SW) 00:16:13 435.950
BEESAT 3 25 Apr 00:14:27 00:17:58 29° 242° (WSW) 00:21:27 437.485
EO-79 25 Apr 00:14:37 00:17:30 18° 91° (E) 00:20:22 145.935-145.965
UNISAT 6 25 Apr 00:15:38 00:19:42 43° 291° (WNW) 00:23:46 437.425
VELOX 1 25 Apr 00:19:15 00:23:36 55° 70° (ENE) 00:27:59 145.980
DUCHIFAT 1 25 Apr 00:19:17 00:21:59 16° 90° (E) 00:24:39 145.980
PRISM 25 Apr 00:21:32 00:24:59 26° 296° (WNW) 00:28:25 437.425
LO-87 25 Apr 00:25:07 00:27:55 21° 267° (W) 00:30:44 145.935 - 145.965
AIST 2D 25 Apr 00:39:39 00:43:08 57° 101° (E) 00:46:36 435.315
UKube-1 25 Apr 00:49:34 00:53:29 34° 66° (ENE) 00:57:24 .
POLYITAN 1 25 Apr 00:52:28 00:56:28 41° 98° (E) 01:00:26 437.675
QB50P2 25 Apr 00:58:53 01:03:01 51° 100° (E) 01:07:07 145.880/145.840
50 SAT 25 Apr 01:11:31 01:14:59 70° 258° (WSW) 01:18:30 437.505
DX 1 25 Apr 01:17:45 01:22:09 85° 70° (ENE) 01:26:34 434.975-435.025
Oscar 19 25 Apr 01:21:59 01:23:18 11° 84° (E) 01:24:37 437.125/150
NANOSAT C BR1 25 Apr 01:22:53 01:27:05 78° 103° (ESE) 01:31:16 145.865
BUGSAT 1 25 Apr 01:28:51 01:32:20 27° 95° (E) 01:35:47 437.445
TIGRISAT 25 Apr 01:34:03 01:35:04 11° 305° (NW) 01:36:05 435.000
FO-29 25 Apr 01:35:13 01:38:58 20° 303° (WNW) 01:42:44 435.910
ITUPSAT 1 25 Apr 01:36:34 01:38:47 13° 53° (NE) 01:40:59 437.325
NO-84 25 Apr 01:37:17 01:40:09 34° 13° (NNE) 01:42:50 435.350 FM
ESTCUBE 1 25 Apr 01:37:54 01:38:57 11° 275° (W) 01:39:59 437.505/2401.250
SPROUT 25 Apr 01:38:11 01:41:54 29° 265° (W) 01:45:39 437.525
BEESAT 2 25 Apr 01:48:56 01:49:11 10° 251° (WSW) 01:49:28 435.950
EO-79 25 Apr 01:49:29 01:53:35 53° 289° (WNW) 01:57:40 145.935-145.965
DUCHIFAT 1 25 Apr 01:53:54 01:58:01 57° 288° (WNW) 02:02:06 145.980
VELOX 1 25 Apr 01:57:09 02:00:22 19° 269° (W) 02:03:38 145.980
AIST 2D 25 Apr 02:14:10 02:15:56 13° 298° (WNW) 02:17:43 435.315
UKube-1 25 Apr 02:25:43 02:29:32 29° 264° (W) 02:33:21 .
POLYITAN 1 25 Apr 02:28:41 02:32:03 24° 297° (WNW) 02:35:25 437.675
BEESAT 25 Apr 02:32:18 02:36:37 36° 66° (ENE) 02:40:59 436.000
QB50P2 25 Apr 02:35:25 02:38:29 20° 299° (WNW) 02:41:32 145.880/145.840
MOZHAYETS 4 25 Apr 02:43:56 02:47:30 23° 62° (ENE) 02:51:04
Gurwin Techsat 1B 25 Apr 02:44:22 02:49:13 34° 96° (E) 02:54:02 435.225
DX 1 25 Apr 02:57:12 02:58:57 12° 273° (W) 03:00:42 434.975-435.025
Oscar 19 25 Apr 02:58:20 03:03:34 71° 103° (ESE) 03:08:46 437.125/150
NANOSAT C BR1 25 Apr 03:00:00 03:02:15 14° 302° (WNW) 03:04:30 145.865
BUGSAT 1 25 Apr 03:04:08 03:07:43 31° 294° (WNW) 03:11:16 437.445
ITUPSAT 1 25 Apr 03:11:05 03:15:50 77° 72° (ENE) 03:20:36 437.325
KKS-1 25 Apr 03:13:10 03:14:17 11° 53° (NE) 03:15:23 437.445
NO-84 25 Apr 03:14:52 03:17:47 60° 214° (SSW) 03:20:35 435.350 FM
PCSat 25 Apr 03:29:54 03:35:05 49° 117° (ESE) 03:40:19 145.827
CUBESAT XI-V 25 Apr 03:30:54 03:33:28 15° 56° (NE) 03:36:03 437.345
STARS 25 Apr 03:50:02 03:51:23 11° 54° (NE) 03:52:45 437.465
YUBILEINY 25 Apr 03:52:48 03:59:14 24° 77° (ENE) 04:05:41 435.215
AO-7 25 Apr 04:02:23 04:09:31 31° 94° (E) 04:16:37 .
BEESAT 25 Apr 04:10:11 04:14:27 32° 264° (W) 04:18:44 436.000
MOZHAYETS 4 25 Apr 04:19:57 04:24:22 50° 261° (W) 04:28:50
ITAMSAT 1 25 Apr 04:20:05 04:24:57 39° 98° (E) 04:29:46 435.822/435.867
Gurwin Techsat 1B 25 Apr 04:24:17 04:29:14 40° 295° (WNW) 04:34:10 435.225
Oscar 19 25 Apr 04:38:33 04:42:24 21° 302° (WNW) 04:46:14 437.125/150
KKS-1 25 Apr 04:45:33 04:49:59 67° 73° (ENE) 04:54:27 437.445
ITUPSAT 1 25 Apr 04:51:27 04:54:14 15° 271° (W) 04:57:01 437.325
CUBESAT XI-V 25 Apr 05:05:31 05:10:10 90° 305° (NW) 05:14:53 437.345
PCSat 25 Apr 05:13:36 05:18:39 38° 318° (NW) 05:23:44 145.827
STARS 25 Apr 05:22:33 05:26:57 72° 72° (ENE) 05:31:21 437.465
M-CUBED/EXP-1 PRIME 25 Apr 05:31:11 05:32:39 11° 46° (NE) 05:34:06 437.505
YUBILEINY 25 Apr 05:46:13 05:54:55 87° 280° (W) 06:03:42 435.215
AO-7 25 Apr 05:54:43 06:03:01 74° 294° (WNW) 06:11:17 .
ITAMSAT 1 25 Apr 05:59:42 06:04:22 35° 297° (WNW) 06:09:00 435.822/435.867
RS-15 25 Apr 06:01:25 06:04:30 11° 88° (E) 06:07:35 29.354- 29.394
KKS-1 25 Apr 06:24:14 06:27:01 16° 270° (W) 06:29:48 437.445
DOVE 4 25 Apr 06:27:12 06:31:00 23° 91° (E) 06:34:36 437.250
STRAND 1 25 Apr 06:35:22 06:39:31 26° 60° (ENE) 06:43:40 437.568
XW-2D 25 Apr 06:36:30 06:38:58 16° 91° (E) 06:41:27 145.860 - 145.880
XW-2B 25 Apr 06:43:11 06:45:55 19° 92° (E) 06:48:39 145.730 - 145.750
CUBESAT XI-V 25 Apr 06:46:19 06:48:15 12° 274° (W) 06:50:12 437.345
LilacSat-2 25 Apr 06:51:45 06:54:55 24° 94° (E) 06:58:05 437.200
CUTE-I 25 Apr 06:54:29 06:58:54 26° 93° (E) 07:03:18 437.470
XW-2C 25 Apr 06:54:41 06:57:51 25° 94° (E) 07:01:01 145.795 - 145.815
KAITUO 1B 25 Apr 06:56:54 06:59:50 21° 93° (E) 07:02:44 145.475/437.950
PCSat 25 Apr 07:00:31 07:03:38 15° 342° (NNW) 07:06:46 145.827
STARS 25 Apr 07:01:20 07:03:48 15° 271° (W) 07:06:16 437.465
M-CUBED/EXP-1 PRIME 25 Apr 07:01:36 07:06:08 56° 65° (ENE) 07:10:44 437.505
HO-68 25 Apr 07:02:04 07:03:29 11° 80° (E) 07:04:54 435.675
SO-50 25 Apr 07:03:50 07:07:22 22° 115° (ESE) 07:10:51 436.795
XW-2F 25 Apr 07:21:12 07:24:52 45° 99° (E) 07:28:31 145.980 - 146.000
NUDT-PHONESAT 25 Apr 07:38:01 07:41:42 58° 101° (E) 07:45:23 437.300
YUBILEINY 25 Apr 07:46:23 07:53:08 24° 304° (NW) 07:59:57 435.215
AO-7 25 Apr 07:48:25 07:54:32 24° 317° (NW) 08:00:40 .
RS-15 25 Apr 08:02:14 08:13:35 50° 112° (ESE) 08:25:11 29.354- 29.394
DOVE 4 25 Apr 08:04:22 08:08:58 47° 291° (WNW) 08:13:16 437.250
XW-2D 25 Apr 08:09:45 08:13:26 48° 289° (WNW) 08:17:06 145.860 - 145.880
STRAND 1 25 Apr 08:13:23 08:18:23 55° 259° (W) 08:23:25 437.568
XW-2A 25 Apr 08:15:12 08:18:01 24° 95° (E) 08:20:49 145.665 - 145.685
XW-2B 25 Apr 08:16:42 08:20:18 42° 290° (WNW) 08:23:54 145.730 - 145.750
LilacSat-2 25 Apr 08:25:48 08:29:15 32° 292° (WNW) 08:32:43 437.200
FO-29 25 Apr 08:26:21 08:27:21 10° 48° (NE) 08:28:20 435.910
XW-2C 25 Apr 08:28:42 08:32:06 31° 292° (WNW) 08:35:29 145.795 - 145.815
KAITUO 1B 25 Apr 08:30:29 08:33:57 36° 291° (WNW) 08:37:25 145.475/437.950
CUTE 1.7 + AOD 2 25 Apr 08:33:01 08:37:07 42° 98° (E) 08:41:12 437.475
CUTE-I 25 Apr 08:34:05 08:39:16 53° 292° (WNW) 08:44:24 437.470
AAUSAT CUBESAT 2 25 Apr 08:34:51 08:37:26 16° 89° (E) 08:40:01 437.432
M-CUBED/EXP-1 PRIME 25 Apr 08:37:12 08:40:50 22° 263° (W) 08:44:30 437.505
SO-50 25 Apr 08:42:53 08:47:27 64° 314° (NW) 08:51:59 436.795
HO-68 25 Apr 08:45:47 08:52:52 56° 101° (E) 08:59:54 435.675
PCSat 25 Apr 08:46:56 08:49:26 13° 9° (N) 08:51:56 145.827
XW-2F 25 Apr 08:56:04 08:58:43 18° 297° (WNW) 09:01:23 145.980 - 146.000
SEEDS 25 Apr 08:56:14 09:00:23 48° 99° (E) 09:04:31 437.485
Oscar 11 25 Apr 09:01:44 09:03:38 13° 87° (E) 09:05:32 .
Tancredo 1 25 Apr 09:04:00 09:04:40 11° 136° (SE) 09:05:20 437.200
UWE-3 25 Apr 09:11:39 09:15:24 31° 96° (E) 09:19:09 435.000/436.395/437.385
ISS 25 Apr 09:12:48 09:13:39 11° 135° (SE) 09:14:31 437.550
NUDT-PHONESAT 25 Apr 09:13:06 09:15:12 15° 299° (WNW) 09:17:18 437.300
CUBEBUG 2 25 Apr 09:21:07 09:25:15 61° 101° (ESE) 09:29:24 437.445
TIGRISAT 25 Apr 09:22:12 09:25:28 21° 62° (ENE) 09:28:42 435.000
PRISM 25 Apr 09:38:56 09:42:56 48° 70° (ENE) 09:46:59 437.425
UNISAT 6 25 Apr 09:42:08 09:46:03 33° 67° (ENE) 09:49:56 437.425
XW-2A 25 Apr 09:47:58 09:50:44 24° 293° (WNW) 09:53:30 145.665 - 145.685
FO-29 25 Apr 10:05:24 10:11:23 51° 68° (ENE) 10:16:45 435.910
AAUSAT CUBESAT 2 25 Apr 10:09:08 10:13:18 60° 288° (WNW) 10:17:25 437.432
CUTE 1.7 + AOD 2 25 Apr 10:09:17 10:12:45 24° 296° (WNW) 10:16:11 437.475
ZACube-1 25 Apr 10:10:34 10:14:46 74° 103° (ESE) 10:19:02 437.345
RS-15 25 Apr 10:13:38 10:25:50 68° 319° (NW) 10:38:14 29.354- 29.394
CUTE-I 25 Apr 10:16:54 10:18:10 11° 312° (NW) 10:19:27 437.470
AO-73 25 Apr 10:18:25 10:22:37 81° 102° (ESE) 10:26:53 145.935
SO-50 25 Apr 10:25:29 10:28:45 19° 336° (NNW) 10:32:01 436.795
PCSat 25 Apr 10:30:13 10:34:47 26° 35° (NE) 10:39:21 145.827
SEEDS 25 Apr 10:32:34 10:35:47 21° 297° (WNW) 10:39:01 437.485
HO-68 25 Apr 10:33:53 10:40:23 38° 302° (WNW) 10:46:53 435.675
Oscar 11 25 Apr 10:35:59 10:40:21 81° 285° (WNW) 10:44:42 .
Tancredo 1 25 Apr 10:36:59 10:40:00 51° 154° (SSE) 10:43:02 437.200
OBJECT BX 25 Apr 10:38:07 10:41:13 25° 95° (E) 10:44:18 145.990 - 145.960
NANOSAT C BR1 25 Apr 10:45:40 10:47:47 14° 57° (ENE) 10:49:54 145.865
ISS 25 Apr 10:46:22 10:49:32 50° 153° (SSE) 10:52:42 437.550
UWE-3 25 Apr 10:48:12 10:51:49 29° 294° (WNW) 10:55:29 435.000/436.395/437.385
TIGRISAT 25 Apr 10:57:36 11:01:52 50° 260° (W) 11:06:05 435.000
CUBEBUG 2 25 Apr 10:58:48 11:01:28 17° 300° (WNW) 11:04:08 437.445
DELFI C3 25 Apr 11:07:22 11:11:25 71° 103° (ESE) 11:15:24 145.870
EO-79 25 Apr 11:10:54 11:14:18 24° 63° (ENE) 11:17:42 145.935-145.965
DUCHIFAT 1 25 Apr 11:14:57 11:18:12 22° 63° (ENE) 11:21:28 145.980
PRISM 25 Apr 11:15:26 11:18:29 19° 268° (W) 11:21:33 437.425
AIST 2D 25 Apr 11:18:02 11:21:18 39° 71° (ENE) 11:24:35 435.315
UNISAT 6 25 Apr 11:18:55 11:22:47 30° 265° (W) 11:26:36 437.425
O/OREOS (USA 219) 25 Apr 11:35:22 11:39:55 66° 113° (ESE) 11:44:30 437.305
ESTCUBE 1 25 Apr 11:46:01 11:48:49 16° 89° (E) 11:51:35 437.505/2401.250
LO-87 25 Apr 11:47:15 11:50:09 23° 94° (E) 11:53:02 145.935 - 145.965
ZACube-1 25 Apr 11:48:13 11:50:33 15° 301° (WNW) 11:52:54 437.345
POLYITAN 1 25 Apr 11:48:48 11:52:55 54° 71° (ENE) 11:57:02 437.675
FO-29 25 Apr 11:51:15 11:56:41 30° 265° (W) 12:01:39 435.910
QB50P2 25 Apr 11:55:14 11:59:26 68° 73° (ENE) 12:03:38 145.880/145.840
AO-73 25 Apr 11:56:12 11:58:19 14° 302° (WNW) 12:00:26 145.935
SO-50 25 Apr 12:09:05 12:10:58 12° 0° (N) 12:12:50 436.795
OBJECT BX 25 Apr 12:11:43 12:14:54 28° 293° (WNW) 12:18:05 145.990 - 145.960
Tancredo 1 25 Apr 12:12:50 12:15:55 60° 352° (N) 12:19:00 437.200
PCSat 25 Apr 12:13:21 12:18:50 82° 237° (WSW) 12:24:15 145.827
Oscar 11 25 Apr 12:14:05 12:15:46 12° 304° (NW) 12:17:27 .
NANOSAT C BR1 25 Apr 12:18:42 12:22:55 83° 257° (WSW) 12:27:09 145.865
BUGSAT 1 25 Apr 12:22:17 12:26:05 35° 67° (ENE) 12:29:50 437.445
ISS 25 Apr 12:22:46 12:26:00 62° 353° (N) 12:29:15 437.550
HO-68 25 Apr 12:24:16 12:26:11 11° 325° (NW) 12:28:06 435.675
RS-15 25 Apr 12:29:31 12:40:59 41° 350° (N) 12:52:24 29.354- 29.394
Gurwin Techsat 1B 25 Apr 12:32:41 12:35:48 16° 53° (NE) 12:38:57 435.225
Oscar 19 25 Apr 12:41:30 12:45:45 27° 60° (ENE) 12:50:03 437.125/150
DELFI C3 25 Apr 12:43:29 12:45:41 14° 301° (WNW) 12:47:51 145.870
AO-85 25 Apr 12:45:49 12:47:25 12° 111° (ESE) 12:48:59 145.980
EO-79 25 Apr 12:45:53 12:49:52 41° 262° (W) 12:53:53 145.935-145.965
DUCHIFAT 1 25 Apr 12:49:37 12:53:38 44° 261° (W) 12:57:41 145.980
AIST 2D 25 Apr 12:52:26 12:54:42 16° 269° (W) 12:56:59 435.315
DX 1 25 Apr 13:04:01 13:05:05 11° 86° (E) 13:06:10 434.975-435.025
O/OREOS (USA 219) 25 Apr 13:16:14 13:19:47 21° 314° (NW) 13:23:22 437.305
AO-7 25 Apr 13:17:11 13:22:40 20° 39° (NE) 13:28:10 .
SPROUT 25 Apr 13:18:50 13:22:44 34° 96° (E) 13:26:37 437.525
LO-87 25 Apr 13:20:28 13:23:38 29° 292° (WNW) 13:26:46 145.935 - 145.965
ESTCUBE 1 25 Apr 13:21:34 13:26:06 69° 288° (WNW) 13:30:37 437.505/2401.250
POLYITAN 1 25 Apr 13:26:10 13:29:02 18° 269° (W) 13:31:54 437.675
QB50P2 25 Apr 13:33:22 13:35:41 14° 271° (W) 13:38:01 145.880/145.840
VELOX 1 25 Apr 13:41:03 13:45:28 59° 101° (ESE) 13:49:49 145.980
Tancredo 1 25 Apr 13:48:55 13:52:01 71° 12° (NNE) 13:55:08 437.200
SO-50 25 Apr 13:49:50 13:53:09 19° 25° (NNE) 13:56:27 436.795
YUBILEINY 25 Apr 13:55:17 14:00:31 17° 48° (NE) 14:05:47 435.215
BUGSAT 1 25 Apr 13:58:02 14:01:30 26° 265° (W) 14:04:59 437.445
PCSat 25 Apr 13:58:25 14:01:23 15° 256° (WSW) 14:04:21 145.827
ISS 25 Apr 13:59:25 14:02:41 71° 12° (NNE) 14:05:56 437.550
50 SAT 25 Apr 14:03:33 14:07:03 65° 102° (ESE) 14:10:30 437.505
ITAMSAT 1 25 Apr 14:05:22 14:08:41 17° 55° (NE) 14:12:00 435.822/435.867
UKube-1 25 Apr 14:07:46 14:11:41 32° 96° (E) 14:15:33 .
BEESAT 3 25 Apr 14:09:06 14:11:22 15° 112° (ESE) 14:13:38 437.485
Gurwin Techsat 1B 25 Apr 14:09:39 14:14:58 81° 73° (ENE) 14:20:20 435.225
Oscar 19 25 Apr 14:19:45 14:24:48 53° 260° (W) 14:29:54 437.125/150
AO-85 25 Apr 14:23:01 14:27:13 87° 133° (SE) 14:31:15 145.980
DX 1 25 Apr 14:37:34 14:41:58 87° 105° (ESE) 14:46:19 434.975-435.025
RS-15 25 Apr 14:45:13 14:57:06 47° 24° (NNE) 15:08:36 29.354- 29.394
SPROUT 25 Apr 14:54:55 14:58:34 28° 295° (WNW) 15:02:12 437.525
ESTCUBE 1 25 Apr 15:00:41 15:02:04 11° 307° (NW) 15:03:27 437.505/2401.250
AO-7 25 Apr 15:05:49 15:13:55 61° 62° (ENE) 15:22:03 .
ITUPSAT 1 25 Apr 15:08:32 15:11:05 14° 88° (E) 15:13:36 437.325
VELOX 1 25 Apr 15:18:20 15:21:31 19° 300° (WNW) 15:24:40 145.980
Tancredo 1 25 Apr 15:24:58 15:27:49 33° 212° (SSW) 15:30:40 437.200
SO-50 25 Apr 15:29:53 15:34:24 69° 48° (NE) 15:38:53 436.795
ISS 25 Apr 15:36:01 15:39:02 35° 211° (SSW) 15:42:03 437.550
50 SAT 25 Apr 15:38:02 15:39:31 12° 300° (WNW) 15:41:00 437.505
BEESAT 2 25 Apr 15:40:26 15:44:13 44° 122° (ESE) 15:48:05 435.950
ITAMSAT 1 25 Apr 15:42:17 15:47:29 89° 256° (WSW) 15:52:43 435.822/435.867
UKube-1 25 Apr 15:43:51 15:47:41 31° 295° (WNW) 15:51:29 .
BEESAT 3 25 Apr 15:44:28 15:48:25 75° 311° (NW) 15:52:28 437.485
YUBILEINY 25 Apr 15:50:54 15:59:35 61° 74° (ENE) 16:08:15 435.215
Gurwin Techsat 1B 25 Apr 15:52:14 15:55:35 17° 272° (W) 15:58:57 435.225
BEESAT 25 Apr 16:05:05 16:09:40 45° 99° (E) 16:14:14 436.000
AO-85 25 Apr 16:05:05 16:08:07 20° 329° (NNW) 16:11:04 145.980
MOZHAYETS 4 25 Apr 16:10:31 16:14:29 28° 94° (E) 16:18:27
DX 1 25 Apr 16:15:15 16:17:32 14° 304° (NW) 16:19:47 434.975-435.025
